Location: Invercargill
(46.4000°S, 168.3500°E)
Time: 18:28:24
(UTC+13:00)

CZ-4C R/B - Pass Details

Date: 24 January 2019
Orbit: 654 x 1348 km, 63.4° (Epoch: 14 October)

Event Time Altitude Azimuth Distance (km) Brightness Sun altitude
Rises 21:56:31 0° 223° (SW) 3,807 7.7 -4.7°
Reaches altitude 10° 21:59:59 10° 208° (SSW) 2,717 6.0 -5.2°
Maximum altitude 22:04:47 22° 158° (SSE) 1,802 4.1 -5.9°
Drops below altitude 10° 22:09:01 10° 107° (ESE) 2,362 4.2 -6.4°
Enters shadow 22:11:35 - 92° (E) 3,128 4.7 -6.8°
